Location: Caltech
(34.1382°N, 118.1253°W)
Time: 18:52:27
(UTC-08:00)

ASTRO E2 - Visible Passes

Search period start: 21 November 2014 00:00
Search period end: 01 December 2014 00:00
Orbit: 531 x 539 km, 31.4° (Epoch: 21 November)

Date Brightness Start Highest point End Pass type
(mag) Time Alt. Az. Time Alt. Az. Time Alt. Az.
21 Nov 3.1 18:10:22 10° W 18:14:25 59° S 18:15:48 37° ESE visible
22 Nov 3.2 17:58:50 10° W 18:02:53 57° S 18:05:00 26° ESE visible
22 Nov 5.9 19:39:54 10° W 19:40:17 12° WSW 19:40:17 12° WSW visible
23 Nov 3.3 17:47:18 10° W 17:51:19 54° S 17:54:15 17° ESE visible
23 Nov 5.6 19:28:29 10° WSW 19:29:32 16° WSW 19:29:32 16° WSW visible
24 Nov 3.5 17:35:45 10° W 17:39:44 49° S 17:43:34 11° ESE visible
24 Nov 5.3 19:17:06 10° WSW 19:18:52 18° SW 19:18:52 18° SW visible
25 Nov 3.7 17:24:12 10° W 17:28:07 44° SSW 17:32:02 10° ESE visible
25 Nov 5.1 19:05:47 10° WSW 19:08:17 18° SSW 19:08:17 18° SSW visible
26 Nov 4.0 17:12:38 10° W 17:16:28 39° SSW 17:20:19 10° SE visible
26 Nov 5.3 18:54:36 10° WSW 18:56:55 15° SSW 18:57:50 14° S visible
27 Nov 5.6 18:43:44 10° SW 18:45:11 12° SSW 18:46:38 10° S visible
